sat.trackr.live / text

‹ back to catalog

EUTELSAT 10B

NORAD 54259 · 2022-157A

PAYLOAD ACTIVE UNKNOWN

§ Identity

Operator
Country
EUTE
Launch date
2022-11-23
Launch site
AFETR
Launch vehicle
Mass (kg)
RCS (m²)

Purposes: comms

External: N2YO · Heavens-Above · Gunter

§ Orbital elements

Epoch: 2026-09-19T13:35:48.820128Z

Period
1,436.11 min
Inclination
0.0571°
Eccentricity
0.0001662
Mean motion
1.00271067 rev/d
Perigee alt
35,779.8 km
Apogee alt
35,793.8 km
Semi-major
42,164.9 km
B*
0.0000e+0
RAAN
100.7764°
Arg perigee
1.1507°
Mean anomaly
110.4835°
Rev number
1,397

§ Raw data

EUTELSAT 10B1 54259U 22157A   26262.56653727  .00000064  00000+0  00000+0 0  99992 54259   0.0571 100.7764 0001662   1.1507 110.4835  1.00271067 13970

JSON: /api/v1/satellites/54259 · /tle

For live sub-satellite position, see the globe view (requires WebGL).

§ Visibility from observer

Set your observer location to see the next 7 days of passes ≥ 10°. The values pass through the URL so the page stays shareable.

No JS? Fill the form by hand. The geolocation button needs JavaScript.